Regional Weather Roundup
Issued by NWS Albany, NY

Home | Current Version | Previous Version | Text Only | Print | Product List | Glossary On
Versions: 1 2 3 4 5 6 7 8 9 10 11 12 13 14 15 16 17 18 19 20 21 22 23 24 25 26 27
000
ASUS41 KALY 290110
RWRALY

NEW YORK STATE HOURLY WEATHER ROUNDUP
NATIONAL WEATHER SERVICE ALBANY NY
900 PM EDT WED JUN 28 2017

NOTE: "FAIR" INDICATES FEW OR NO CLOUDS BELOW 12,000 FEET WITH NO
SIGNIFICANT WEATHER AND/OR NO OBSTRUCTIONS TO VISIBILITY.

NYZ032-033-038>043-046>054-057>066-NYZ062>081-082-084-290200-
EAST


CITY           SKY/WX    TMP DP  RH WIND       PRES   REMARKS
ALBANY         MOCLDY    67  53  61 CALM      30.06R
GLENS FALLS    CLEAR     61  53  75 CALM      30.04R
POUGHKEEPSIE   CLEAR     66  51  58 CALM      30.06R
NEWBURGH       CLEAR     70  54  56 CALM      30.09S
MONTGOMERY     CLEAR     66  55  67 CALM      30.08R
WHITE PLAINS   CLEAR     65  52  62 S8        30.09R
ISLIP          MOCLDY    68  58  70 SW12      30.10S
NEW YORK CITY  MOCLDY    78  50  37 W12       30.08R
CENTRAL PARK   CLEAR     76  48  37 W7        30.12R
$$

NYZ005>009-017-018-044>046-055-056-290200-
CENTRAL


CITY           SKY/WX    TMP DP  RH WIND       PRES   REMARKS
FULTON         CLOUDY    61  55  81 E3        30.03F
SYRACUSE       MOCLDY    66  56  70 N3        30.03S
ROME           CLOUDY    64  57  78 NE5       30.04S
ELMIRA         CLOUDY    65  57  75 CALM      30.05S
BINGHAMTON     CLOUDY    64  48  56 SW6       30.08F
MONTICELLO     CLOUDY    64  50  59 SW3       30.12S
$$

NYZ026>034-041>043-087-290200-
NORTH


CITY           SKY/WX    TMP DP  RH WIND       PRES   REMARKS
WATERTOWN      PTCLDY    63  53  70 CALM      30.01F
FORT DRUM      NOT AVBL
OGDENSBURG     FAIR      64  54  70 S3        29.99S
MASSENA        LGT RAIN  62  60  93 S5        30.00F
SARANAC LAKE   PTCLDY    57  47  69 SW3       30.05R
PLATTSBURGH    PTCLDY    64  53  67 CALM      30.00R
$$

NYZ001>004-010>016-019>021-085-290200-
WEST


CITY           SKY/WX    TMP DP  RH WIND       PRES   REMARKS
NIAGARA FALLS  CLOUDY    68  49  50 S8        30.02S
BUFFALO        CLOUDY    66  47  50 S9        30.03S
DUNKIRK        PTCLDY    62  57  83 CALM      30.03F
JAMESTOWN      CLOUDY    63  48  59 S8        30.07F
WELLSVILLE     CLOUDY    65  49  56 SW6       30.10F
ROCHESTER      MOCLDY    67  52  58 SW6       30.03S
PENN YAN       PTCLDY    68  51  54 S5        30.05F
$$

             KEY
       WCI = WIND CHILL INDEX
       VSB = VISIBILITY
       HX  = HEAT INDEX
$$




USA.gov is the U.S. government's official web portal to all federal, state and local government web resources and services.